Aberdeen, SD

7:54 AM CST on December 03, 2016 (GMT -0600)
Aberdeen Regional

Weather History for KABR - October, 2011

Change the Weather History Date:

Tuesday, October 11, 2011

  Actual Average Record
Temperature  
Mean Temperature 58 °F 48 °F  
Max Temperature 75 °F 60 °F 93 °F (2015)
Min Temperature 41 °F 35 °F 16 °F (1935)
Degree Days  
Heating Degree Days 7 18  
Month to date heating degree days 39 170  
Since 1 July heating degree days 243 444  
Cooling Degree Days 0 0  
Month to date cooling degree days 31 0  
Year to date cooling degree days 729 523  
Growing Degree Days 8 (Base 50)    
Moisture  
Dew Point 49 °F    
Average Humidity 73    
Maximum Humidity 100    
Minimum Humidity 46    
Precipitation  
Precipitation T in 0.06 in 1.38 in (1961)
Month to date precipitation 0.80 0.80  
Year to date precipitation 22.95 19.28  
Snow  
Snow 0.00 in - - ()
Month to date snowfall 0.0  
Since 1 July snowfall 0.0  
Snow Depth 0.00 in    
Sea Level Pressure  
Sea Level Pressure 29.71 in    
Wind  
Wind Speed 9 mph (South)    
Max Wind Speed 21 mph    
Max Gust Speed 26 mph    
Visibility 10 miles    
Events Thunderstorm    
T = Trace of Precipitation, MM = Missing Value Source: NWS Daily Summary

Daily Weather History Graph

Daily Weather History Graph

Search for Another Location

Airport or City:

Trip Planner

Search our weather history database for the weather conditions in past years. The results will help you decide how hot, cold, wet, or windy it might be!

Date:

Astronomy

Oct. 11, 2011 Rise Set
Actual Time 7:44 AM CDT 6:55 PM CDT
Civil Twilight 7:14 AM CDT 7:25 PM CDT
Nautical Twilight 6:40 AM CDT 7:59 PM CDT
Astronomical Twilight 6:05 AM CDT 8:33 PM CDT
Moon 6:25 PM CDT (10/11) 7:25 AM CDT (10/11)
Length of Visible Light 12h 10m
Length of Day
11h 11m
Full, 100% of the Moon is Illuminated
Oct 11
Full
Oct 11
Full
Oct 19
Last Quarter
Oct 26
New
Nov 2
First Quarter

Hourly Weather History & Observations

Time (CDT) Temp. Windchill Dew Point Humidity Pressure Visibility Wind Dir Wind Speed Gust Speed Precip Events Conditions
12:53 AM 46.0 °F 41.4 °F 45.0 °F 96% 29.78 in 10.0 mi South 9.2 mph - N/A   Clear
1:53 AM 42.8 °F 39.3 °F 42.8 °F 100% 29.78 in 10.0 mi South 5.8 mph - N/A   Clear
2:53 AM 43.0 °F 39.5 °F 42.1 °F 97% 29.78 in 10.0 mi South 5.8 mph - N/A   Clear
3:53 AM 43.0 °F 38.8 °F 42.1 °F 97% 29.76 in 10.0 mi South 6.9 mph - N/A   Clear
4:53 AM 42.1 °F 38.4 °F 42.1 °F 100% 29.76 in 10.0 mi SSE 5.8 mph - N/A   Clear
5:53 AM 46.0 °F 42.5 °F 44.1 °F 93% 29.75 in 10.0 mi SSE 6.9 mph - N/A   Clear
6:53 AM 44.1 °F 40.8 °F 43.0 °F 96% 29.76 in 10.0 mi South 5.8 mph - 0.01 in   Clear
7:53 AM 43.0 °F 39.5 °F 42.1 °F 97% 29.76 in 7.0 mi South 5.8 mph - N/A   Clear
10:53 AM 57.2 °F - 51.8 °F 82% 29.73 in 10.0 mi South 12.7 mph - N/A   Clear
11:53 AM 62.1 °F - 53.1 °F 72% 29.72 in 10.0 mi South 11.5 mph - N/A   Clear
12:53 PM 66.0 °F - 53.1 °F 63% 29.71 in 10.0 mi SSE 12.7 mph - N/A   Clear
1:53 PM 70.0 °F - 52.0 °F 53% 29.68 in 10.0 mi South 12.7 mph 21.9 mph N/A   Clear
2:53 PM 73.4 °F - 51.8 °F 47% 29.65 in 10.0 mi South 17.3 mph 24.2 mph N/A   Clear
3:53 PM 72.0 °F - 51.1 °F 48% 29.65 in 10.0 mi South 12.7 mph 21.9 mph N/A   Clear
4:53 PM 73.0 °F - 51.1 °F 46% 29.64 in 10.0 mi SSE 18.4 mph 25.3 mph N/A   Clear
5:53 PM 68.0 °F - 52.0 °F 56% 29.64 in 10.0 mi SSE 12.7 mph - N/A   Partly Cloudy
6:53 PM 66.0 °F - 54.0 °F 65% 29.66 in 10.0 mi SSE 11.5 mph - N/A   Partly Cloudy
7:53 PM 64.4 °F - 53.6 °F 68% 29.67 in 10.0 mi South 8.1 mph - N/A   Overcast
8:53 PM 64.0 °F - 54.0 °F 70% 29.67 in 10.0 mi South 9.2 mph - N/A Thunderstorm Mostly Cloudy
9:08 PM 64.4 °F - 53.6 °F 68% 29.69 in 10.0 mi SW 9.2 mph - N/A   Overcast
9:53 PM 62.1 °F - 53.1 °F 72% 29.69 in 10.0 mi South 4.6 mph - N/A   Overcast
10:53 PM 61.0 °F - 52.0 °F 72% 29.66 in 10.0 mi NW 4.6 mph - N/A   Overcast
11:53 PM 60.1 °F - 52.0 °F 75% 29.65 in 10.0 mi SE 5.8 mph - 0.00 in   Overcast